User: anonymous   Login
Location: Albany
(35.0000°S, 118.0000°E)
Time: 20:03:33
(UTC-04:00)
Language:

Cosmos 1933 - Orbit

View from above orbital plane
View from above orbital plane
View from above satellite
View from above satellite

Ground track
Ground track

The orbit data is extracted from the following two-line orbital elements,

1 18958U 88020A   15210.42678802  .00001110  00000-0  81855-4 0  9999
2 18958 082.5281 048.0581 0013515 102.6089 257.6649 15.02291273488085
Epoch (UTC): 29 July 2015 10:14:34
Eccentricity: 0.0013515
inclination: 82.5281°
perigee height: 550 km
apogee height: 569 km
right ascension of ascending node: 48.0581°
argument of perigee: 102.6089°
revolutions per day: 15.02291273
mean anomaly at epoch: 257.6649°
orbit number at epoch: 48808

The dashed part of the orbit path shows where the satellite is in the earth's shadow,  

DLR